Location: Greenhawk Observatory
(37.3417°N, 122.0298°W)
Time: 09:54:36
(UTC-08:00)

Daily predictions for brighter satellites

Satellite Brightness Start Highest point End
(mag) Time Altitude Azimuth Time Altitude Azimuth Time Altitude Azimuth
SPOT 3 Rocket 3.8 17:09:46 10° SE 17:14:44 47° ENE 17:19:40 10° N
Cosmos 1295 Rocket 4.5 17:08:47 10° N 17:14:56 81° E 17:21:00 10° S
USA 234 3.5 17:08:48 10° NE 17:15:19 73° NW 17:21:49 10° SW
SMAP 3.3 17:14:00 10° SE 17:18:26 46° ENE 17:22:54 10° N
Ariane Rocket 4.5 17:15:38 10° S 17:20:25 42° W 17:25:13 10° NNW
USA 32 4.0 17:19:54 10° S 17:25:06 77° E 17:30:20 10° N
Cosmos 1812 2.8 17:24:12 10° S 17:27:59 58° E 17:31:47 10° NNE
Cosmos 494 Rocket 4.1 17:22:56 10° N 17:28:04 53° ENE 17:33:12 10° SE
NOSS 3-3 (A) 4.0 17:22:10 10° SSW 17:28:14 70° ESE 17:34:46 10° NE
NOSS 3-3 (C) 4.0 17:22:17 10° SSW 17:28:21 69° ESE 17:34:52 10° NE
Cosmos 1544 Rocket 3.5 17:27:31 10° N 17:32:00 74° E 17:36:27 10° SSE
Cosmos 1238 Rocket 1.9 17:29:54 10° S 17:32:49 75° E 17:35:50 10° N
Okean 1 3.6 17:29:07 10° SSE 17:32:59 46° E 17:36:53 10° NNE
BREEZE M DEB (TANK) 3.7 17:21:13 10° SW 17:33:53 62° SE 17:37:18 12° ENE
Cosmos 1975 Rocket 4.5 17:29:51 10° SSW 17:33:53 40° W 17:37:58 10° N
SL-8 R/B 4.0 17:29:21 10° WSW 17:34:04 63° NNW 17:38:39 11° NE
COSMO-SKYMED 1 3.5 17:31:15 10° NE 17:35:00 28° E 17:38:44 10° SSE
Cosmos 1844 Rocket 3.7 17:31:05 10° SW 17:36:27 46° WNW 17:41:51 10° N
IDEFIX/ARIANE 42P 2.5 17:32:26 10° SSE 17:37:36 76° ENE 17:42:47 10° N
ATLAS 2AS CENTAUR R/B 3.0 17:31:00 10° NNW 17:39:06 81° ENE 17:46:35 10° SE
SJ-7 4.4 17:35:01 10° SSE 17:39:12 68° ENE 17:43:25 10° N
CZ-2C R/B 2.4 17:34:25 10° SSE 17:39:21 81° ENE 17:44:29 10° N
Cosmos 1346 Rocket 3.1 17:42:25 10° SSE 17:46:08 43° E 17:49:49 10° NNE
Meteor 1-18 Rocket 4.3 17:40:59 10° S 17:46:36 88° W 17:52:23 10° N
CORIOLIS 4.1 17:44:11 10° SSE 17:49:36 86° ENE 17:55:02 10° NNW
Cosmos 1536 Rocket 3.6 17:45:58 10° S 17:50:25 88° E 17:54:56 10° N
CZ-4 R/B 4.3 17:46:57 10° SSE 17:51:04 73° ENE 17:55:13 10° N
Thor Agena Rocket 4.0 17:47:30 10° N 17:52:40 65° WNW 17:57:52 10° SSW
SL-27 R/B 4.0 17:50:21 10° NNW 17:53:49 42° WSW 17:57:14 10° S
Tiangong 1 0.9 17:51:32 10° WSW 17:54:34 87° SSE 17:56:08 25° ENE
Nadezhda 3 Rocket 4.1 17:52:08 10° SSE 17:58:07 54° E 18:04:11 10° NNE
Cosmos 1025 Rocket 4.2 17:54:46 10° SE 17:58:07 22° E 17:58:55 21° ENE
YAOGAN 1 3.0 17:54:24 10° S 17:58:40 66° WSW 18:03:00 10° NNW
Cosmos 2297 3.8 17:54:12 10° S 17:59:41 56° ESE 18:04:43 12° NNE
Cosmos 921 Rocket 3.4 17:57:47 10° S 18:01:44 40° E 18:04:23 19° NE
Cosmos 2251 Rocket 4.1 17:56:55 10° NNW 18:02:13 63° WSW 18:07:26 10° S
EP 1 4.1 17:59:40 10° SSW 18:02:21 78° ESE 18:03:21 33° NE
CZ-3B DEB 3.2 18:05:16 10° W 18:08:58 40° NNW 18:16:19 13° NE
Cosmos 375 4.2 18:07:02 10° NNW 18:11:18 70° NE 18:15:06 10° SE
Cosmos 2278 Rocket 2.9 18:07:10 10° SW 18:12:39 52° WNW 18:18:11 10° NNE
CZ-4 R/B 3.7 18:11:00 10° SSW 18:14:36 28° W 18:18:11 10° NW
Meteor 2-21 Rocket 4.4 18:10:07 10° N 18:16:16 63° E 18:22:19 10° SSE
DMSP B5D1-3 4.5 18:12:31 10° NNE 18:17:38 64° ESE 18:22:42 10° S
Genesis I 3.1 18:13:52 10° NNW 18:17:46 67° ENE 18:21:04 14° SE
Meteor 2-16 Rocket 4.5 18:13:36 10° N 18:19:33 54° E 18:25:28 10° SSE
Cosmos 1975 3.5 18:17:10 10° NNW 18:21:09 55° W 18:25:05 10° S
NOAA 12 4.3 18:16:26 10° SE 18:21:25 44° ENE 18:26:24 10° N
SKYMED 2 3.6 18:18:50 10° N 18:23:11 79° WNW 18:27:30 10° SSW
NOSS 2-1 (D) 3.2 18:19:37 10° SSW 18:23:23 69° ESE 18:24:38 41° NE
NOSS 2-1 (C) 3.2 18:20:18 10° SSW 18:24:05 67° ESE 18:25:17 42° NE
ATLAS 3B CENTAUR R/B 4.3 18:04:06 10° WSW 18:25:14 54° S 18:31:11 19° ESE
MSX 4.4 18:20:08 10° S 18:25:48 61° W 18:31:29 10° NNW
Intercosmos 25 2.7 18:23:04 10° N 18:26:13 67° E 18:29:38 10° SSE
Okean 1-7 Rocket 3.5 18:24:12 10° S 18:28:43 83° E 18:32:22 16° N
Cosmos 1484 Rocket 3.1 18:26:07 10° S 18:29:51 63° W 18:33:33 10° NNW
Delta 2 Rocket 3.5 18:26:34 10° WSW 18:30:20 59° S 18:31:17 45° ESE
Cosmos 1743 2.6 18:26:32 10° N 18:30:24 66° E 18:34:13 10° SSE
Meteor 1-19 Rocket 4.2 18:25:16 10° S 18:31:01 77° E 18:36:52 10° NNE
METEOR-M 4.2 18:28:36 10° SE 18:33:42 49° ENE 18:38:51 10° N
FALCON 9 R/B 3.6 18:10:23 10° WSW 18:36:16 75° S 18:40:11 32° E
Cosmos 1500 4.5 18:33:28 10° NNW 18:37:06 42° W 18:40:44 10° SSW
Cosmos 1833 Rocket 2.6 18:33:51 10° NNW 18:39:26 61° ENE 18:44:19 14° SE
Cosmos 2082 Rocket 2.1 18:34:37 10° NNW 18:40:18 73° ENE 18:45:58 10° SSE
Meteor 1-28 Rocket 3.2 18:40:43 43° N 18:41:53 78° W 18:45:39 10° SSW
NOSS 2-1 (E) 3.3 18:38:51 10° SW 18:42:40 82° WNW 18:43:19 62° NNE
Cosmos 2056 Rocket 3.5 18:41:34 10° S 18:46:50 57° ESE 18:47:24 54° ENE
COSMOS 2487 3.9 18:46:40 10° NNW 18:50:02 39° WSW 18:53:23 10° S
GEOS 3 Rocket 3.4 18:52:28 48° SE 18:53:56 77° NE 18:59:03 10° NNW
Cosmos 1934 Rocket 3.8 18:48:20 10° N 18:54:33 70° E 19:00:49 10° SSE
Cosmos 1535 Rocket 4.4 18:49:58 10° N 18:56:19 88° W 19:02:30 10° S
Meteor 1-23 Rocket 4.1 18:53:07 10° S 18:58:52 83° E 19:01:01 40° NNE
Cosmos 1624 Rocket 3.8 18:55:14 10° SSW 19:00:25 84° ESE 19:00:54 73° NE
Cosmos 1371 Rocket 4.2 18:59:52 10° SSW 19:05:11 71° WNW 19:06:49 45° N
Meteor 2-4 Rocket 3.9 19:05:23 10° SSW 19:10:44 65° W 19:13:02 34° N
Meteor 2-8 Rocket 4.4 19:07:46 10° S 19:13:50 81° W 19:16:36 35° N
NOSS 3-4 (A) 3.8 19:07:53 10° NNW 19:14:40 60° NE 19:14:40 60° NE
NOSS 3-4 (C) 3.8 19:07:59 10° NNW 19:14:43 59° NE 19:14:43 59° NE
Meteor 2-9 Rocket 4.1 19:11:39 10° NNW 19:17:06 78° W 19:22:23 10° S
Cosmos 2369 Rocket 4.4 19:13:57 10° SSE 19:14:19 12° SSE 19:14:19 12° SSE
BREEZE M DEB (TANK) 4.1 19:25:21 10° NW 19:30:11 64° NE 19:30:18 64° NE
